Location: Ch�ze
(42.9000°N, 0.0333°W)
Time: 23:12:48
(UTC+00:00)

Cosmos 405 - Pass Details

Date: 24 January 2021
Orbit: 448 x 462 km, 81.3° (Epoch: 24 February)

Event Time Altitude Azimuth Distance (km) Brightness Sun altitude
Rises 18:57:36 0° 349° (NNW) 2,503 6.7 -21.0°
Reaches altitude 10° 18:59:42 10° 348° (NNW) 1,621 5.8 -21.3°
Enters shadow 19:02:41 60° 334° (NNW) 533 3.2 -21.9°
